TimeCDT,TemperatureF,Dew PointF,Humidity,Sea Level PressureIn,VisibilityMPH,Wind Direction,Wind SpeedMPH,Gust SpeedMPH,PrecipitationIn,Events,Conditions,WindDirDegrees,DateUTC
12:15 AM,50.0,42.8,76,30.31,10.0,Calm,Calm,-,N/A,,Clear,0,2013-05-26 05:15:00
12:35 AM,50.0,41.0,71,30.32,10.0,Calm,Calm,-,N/A,,Clear,0,2013-05-26 05:35:00
12:55 AM,48.2,42.8,82,30.32,10.0,Calm,Calm,-,N/A,,Clear,0,2013-05-26 05:55:00
1:15 AM,48.2,42.8,82,30.32,10.0,SE,3.5,-,N/A,,Clear,130,2013-05-26 06:15:00
1:35 AM,48.2,41.0,76,30.31,10.0,ESE,4.6,-,N/A,,Clear,110,2013-05-26 06:35:00
1:55 AM,48.2,41.0,76,30.30,10.0,ESE,3.5,-,N/A,,Clear,110,2013-05-26 06:55:00
2:15 AM,46.4,41.0,81,30.30,10.0,Calm,Calm,-,N/A,,Clear,0,2013-05-26 07:15:00
2:35 AM,46.4,39.2,76,30.31,10.0,Calm,Calm,-,N/A,,Clear,0,2013-05-26 07:35:00
2:55 AM,46.4,39.2,76,30.32,10.0,Calm,Calm,-,N/A,,Clear,0,2013-05-26 07:55:00
3:15 AM,46.4,41.0,81,30.31,10.0,Calm,Calm,-,N/A,,Clear,0,2013-05-26 08:15:00
3:35 AM,42.8,39.2,87,30.31,10.0,Calm,Calm,-,N/A,,Clear,0,2013-05-26 08:35:00
3:55 AM,42.8,39.2,87,30.29,10.0,Calm,Calm,-,N/A,,Clear,0,2013-05-26 08:55:00
4:15 AM,41.0,39.2,93,30.30,10.0,Calm,Calm,-,N/A,,Clear,0,2013-05-26 09:15:00
4:35 AM,39.2,37.4,93,30.31,10.0,Calm,Calm,-,N/A,,Clear,0,2013-05-26 09:35:00
4:55 AM,39.2,37.4,93,30.31,10.0,NE,3.5,-,N/A,,Clear,50,2013-05-26 09:55:00
5:15 AM,39.2,37.4,93,30.31,10.0,Calm,Calm,-,N/A,,Clear,0,2013-05-26 10:15:00
5:35 AM,39.2,37.4,93,30.31,10.0,East,4.6,-,N/A,,Clear,80,2013-05-26 10:35:00
5:55 AM,42.8,39.2,87,30.33,10.0,Calm,Calm,-,N/A,,Clear,0,2013-05-26 10:55:00
6:15 AM,44.6,41.0,87,30.34,10.0,Calm,Calm,-,N/A,,Clear,0,2013-05-26 11:15:00
6:35 AM,46.4,41.0,81,30.33,10.0,Calm,Calm,-,N/A,,Clear,0,2013-05-26 11:35:00
6:55 AM,46.4,39.2,76,30.33,10.0,Calm,Calm,-,N/A,,Clear,0,2013-05-26 11:55:00
7:15 AM,48.2,39.2,71,30.32,10.0,Calm,Calm,-,N/A,,Clear,0,2013-05-26 12:15:00
7:35 AM,51.8,39.2,62,30.32,10.0,ESE,5.8,-,N/A,,Clear,120,2013-05-26 12:35:00
7:55 AM,55.4,37.4,51,30.32,10.0,ESE,8.1,-,N/A,,Clear,120,2013-05-26 12:55:00
8:15 AM,57.2,35.6,44,30.31,10.0,ESE,9.2,-,N/A,,Clear,120,2013-05-26 13:15:00
8:35 AM,57.2,35.6,44,30.32,10.0,SE,8.1,-,N/A,,Clear,140,2013-05-26 13:35:00
8:55 AM,57.2,32.0,38,30.32,10.0,SE,6.9,-,N/A,,Clear,130,2013-05-26 13:55:00
9:15 AM,60.8,30.2,31,30.32,10.0,SSE,9.2,-,N/A,,Clear,150,2013-05-26 14:15:00
9:35 AM,60.8,30.2,31,30.32,10.0,SE,10.4,16.1,N/A,,Clear,140,2013-05-26 14:35:00
9:55 AM,60.8,30.2,31,30.32,10.0,SE,10.4,-,N/A,,Clear,140,2013-05-26 14:55:00
10:15 AM,62.6,32.0,32,30.31,10.0,SE,10.4,16.1,N/A,,Clear,130,2013-05-26 15:15:00
10:35 AM,62.6,32.0,32,30.30,10.0,ESE,11.5,17.3,N/A,,Clear,110,2013-05-26 15:35:00
10:55 AM,62.6,30.2,30,30.30,10.0,SE,11.5,-,N/A,,Clear,140,2013-05-26 15:55:00
11:15 AM,64.4,32.0,30,30.30,10.0,SE,10.4,16.1,N/A,,Clear,140,2013-05-26 16:15:00
11:35 AM,64.4,30.2,28,30.30,10.0,SE,9.2,-,N/A,,Clear,130,2013-05-26 16:35:00
11:55 AM,66.2,28.4,24,30.29,10.0,ESE,11.5,17.3,N/A,,Clear,110,2013-05-26 16:55:00
12:15 PM,66.2,30.2,26,30.29,10.0,SE,11.5,-,N/A,,Clear,130,2013-05-26 17:15:00
12:35 PM,66.2,28.4,24,30.28,10.0,ESE,6.9,-,N/A,,Clear,120,2013-05-26 17:35:00
12:55 PM,66.2,30.2,26,30.27,10.0,ESE,9.2,17.3,N/A,,Clear,110,2013-05-26 17:55:00
1:15 PM,68.0,30.2,24,30.27,10.0,East,9.2,-,N/A,,Clear,100,2013-05-26 18:15:00
1:35 PM,68.0,30.2,24,30.26,10.0,East,12.7,20.7,N/A,,Clear,100,2013-05-26 18:35:00
1:55 PM,68.0,30.2,24,30.25,10.0,SSE,10.4,-,N/A,,Clear,160,2013-05-26 18:55:00
2:15 PM,69.8,30.2,23,30.26,10.0,SSE,12.7,18.4,N/A,,Clear,150,2013-05-26 19:15:00
2:35 PM,68.0,26.6,21,30.25,10.0,SSE,10.4,17.3,N/A,,Clear,160,2013-05-26 19:35:00
2:55 PM,69.8,30.2,23,30.24,10.0,SE,12.7,17.3,N/A,,Clear,140,2013-05-26 19:55:00
3:15 PM,68.0,30.2,24,30.23,10.0,SSE,9.2,-,N/A,,Clear,150,2013-05-26 20:15:00
3:35 PM,69.8,30.2,23,30.22,10.0,SSE,11.5,-,N/A,,Clear,150,2013-05-26 20:35:00
3:55 PM,68.0,30.2,24,30.22,10.0,SSE,10.4,-,N/A,,Clear,150,2013-05-26 20:55:00
4:15 PM,69.8,30.2,23,30.22,10.0,SSE,12.7,16.1,N/A,,Clear,160,2013-05-26 21:15:00
4:35 PM,69.8,28.4,21,30.21,10.0,SSE,13.8,-,N/A,,Clear,150,2013-05-26 21:35:00
4:55 PM,69.8,30.2,23,30.20,10.0,ESE,11.5,18.4,N/A,,Clear,120,2013-05-26 21:55:00
5:15 PM,68.0,28.4,23,30.20,10.0,SSE,11.5,16.1,N/A,,Clear,160,2013-05-26 22:15:00
5:35 PM,68.0,28.4,23,30.19,10.0,ESE,12.7,-,N/A,,Clear,120,2013-05-26 22:35:00
5:55 PM,68.0,28.4,23,30.19,10.0,SE,11.5,16.1,N/A,,Scattered Clouds,140,2013-05-26 22:55:00
6:15 PM,68.0,28.4,23,30.18,10.0,ESE,9.2,-,N/A,,Mostly Cloudy,120,2013-05-26 23:15:00
6:35 PM,68.0,28.4,23,30.18,10.0,SE,8.1,-,N/A,,Mostly Cloudy,130,2013-05-26 23:35:00
6:55 PM,66.2,30.2,26,30.18,10.0,SSE,9.2,-,N/A,,Scattered Clouds,150,2013-05-26 23:55:00
7:15 PM,66.2,30.2,26,30.18,10.0,SE,9.2,16.1,N/A,,Clear,140,2013-05-27 00:15:00
7:35 PM,64.4,32.0,30,30.19,10.0,SE,5.8,-,N/A,,Clear,140,2013-05-27 00:35:00
7:55 PM,64.4,33.8,32,30.20,10.0,SSE,6.9,-,N/A,,Clear,160,2013-05-27 00:55:00
8:15 PM,62.6,35.6,37,30.21,10.0,South,6.9,-,N/A,,Scattered Clouds,170,2013-05-27 01:15:00
8:35 PM,62.6,35.6,37,30.21,10.0,SSE,6.9,-,N/A,,Overcast,160,2013-05-27 01:35:00
8:55 PM,62.6,35.6,37,30.21,10.0,SSE,5.8,-,N/A,,Overcast,150,2013-05-27 01:55:00
9:15 PM,60.8,37.4,42,30.20,10.0,SE,5.8,-,N/A,,Mostly Cloudy,140,2013-05-27 02:15:00
9:35 PM,59.0,39.2,48,30.20,10.0,SE,3.5,-,N/A,,Clear,140,2013-05-27 02:35:00
9:55 PM,57.2,39.2,51,30.19,10.0,ESE,3.5,-,N/A,,Clear,110,2013-05-27 02:55:00
10:15 PM,57.2,41.0,55,30.20,10.0,Calm,Calm,-,N/A,,Clear,0,2013-05-27 03:15:00
10:35 PM,57.2,41.0,55,30.20,10.0,ESE,3.5,-,N/A,,Clear,110,2013-05-27 03:35:00
10:55 PM,55.4,41.0,58,30.20,10.0,ESE,3.5,-,N/A,,Clear,120,2013-05-27 03:55:00
11:15 PM,55.4,42.8,63,30.20,10.0,SE,3.5,-,N/A,,Clear,130,2013-05-27 04:15:00
11:35 PM,53.6,42.8,67,30.20,10.0,SE,3.5,-,N/A,,Clear,130,2013-05-27 04:35:00
11:55 PM,53.6,42.8,67,30.20,10.0,ESE,3.5,-,N/A,,Clear,120,2013-05-27 04:55:00